TimeCDT,TemperatureF,Dew PointF,Humidity,Sea Level PressureIn,VisibilityMPH,Wind Direction,Wind SpeedMPH,Gust SpeedMPH,PrecipitationIn,Events,Conditions,WindDirDegrees,DateUTC
12:51 AM,55.0,32.0,42,30.36,10.0,NE,9.2,-,N/A,,Clear,50,2013-03-26 05:51:00
1:51 AM,57.0,28.0,33,30.36,10.0,NE,12.7,-,N/A,,Clear,50,2013-03-26 06:51:00
2:51 AM,55.9,28.0,34,30.36,10.0,NE,12.7,-,N/A,,Clear,50,2013-03-26 07:51:00
3:51 AM,55.0,28.9,37,30.36,10.0,NE,16.1,-,N/A,,Clear,50,2013-03-26 08:51:00
4:51 AM,54.0,30.0,40,30.37,10.0,NE,15.0,-,N/A,,Clear,50,2013-03-26 09:51:00
5:51 AM,53.1,28.9,40,30.38,10.0,NE,18.4,-,N/A,,Clear,50,2013-03-26 10:51:00
6:51 AM,52.0,28.9,41,30.41,10.0,NE,15.0,-,N/A,,Clear,50,2013-03-26 11:51:00
7:51 AM,50.0,30.9,48,30.43,10.0,NE,9.2,-,N/A,,Clear,40,2013-03-26 12:51:00
8:51 AM,55.0,34.0,45,30.46,10.0,NNE,12.7,-,N/A,,Clear,30,2013-03-26 13:51:00
9:51 AM,60.1,34.0,38,30.47,10.0,ENE,12.7,-,N/A,,Clear,70,2013-03-26 14:51:00
10:51 AM,64.0,27.0,25,30.46,10.0,NE,15.0,24.2,N/A,,Clear,50,2013-03-26 15:51:00
11:51 AM,64.9,27.0,24,30.45,10.0,East,15.0,-,N/A,,Clear,90,2013-03-26 16:51:00
12:51 PM,66.0,28.9,25,30.43,10.0,East,16.1,23.0,N/A,,Clear,80,2013-03-26 17:51:00
1:51 PM,68.0,28.9,23,30.40,10.0,East,16.1,23.0,N/A,,Partly Cloudy,90,2013-03-26 18:51:00
2:51 PM,68.0,26.1,21,30.38,10.0,ESE,13.8,23.0,N/A,,Partly Cloudy,110,2013-03-26 19:51:00
3:51 PM,66.9,27.0,22,30.36,10.0,East,15.0,-,N/A,,Partly Cloudy,100,2013-03-26 20:51:00
4:51 PM,66.0,28.0,24,30.35,10.0,SE,12.7,20.7,N/A,,Partly Cloudy,130,2013-03-26 21:51:00
5:51 PM,64.9,28.9,26,30.33,10.0,SE,17.3,-,N/A,,Partly Cloudy,130,2013-03-26 22:51:00
6:51 PM,63.0,28.0,27,30.34,10.0,SE,15.0,-,N/A,,Partly Cloudy,140,2013-03-26 23:51:00
7:51 PM,60.1,28.9,31,30.35,10.0,SSE,13.8,-,N/A,,Partly Cloudy,150,2013-03-27 00:51:00
8:51 PM,57.0,28.9,34,30.35,10.0,SSE,10.4,-,N/A,,Partly Cloudy,150,2013-03-27 01:51:00
9:51 PM,54.0,28.9,38,30.36,10.0,SSE,6.9,-,N/A,,Clear,150,2013-03-27 02:51:00
10:51 PM,52.0,28.9,41,30.36,10.0,SSE,8.1,-,N/A,,Clear,160,2013-03-27 03:51:00
11:51 PM,50.0,28.9,44,30.35,10.0,SSE,6.9,-,N/A,,Clear,150,2013-03-27 04:51:00